PST,Max TemperatureF,Mean TemperatureF,Min TemperatureF,Max Dew PointF,MeanDew PointF,Min DewpointF,Max Humidity, Mean Humidity, Min Humidity, Max Sea Level PressureIn, Mean Sea Level PressureIn, Min Sea Level PressureIn, Max VisibilityMiles, Mean VisibilityMiles, Min VisibilityMiles, Max Wind SpeedMPH, Mean Wind SpeedMPH, Max Gust SpeedMPH,PrecipitationIn, CloudCover, Events, WindDirDegrees
2012-12-1,62,59,56,58,56,53,93,87,80,30.09,30.04,29.99,10,7,1,18,12,23,0.26,7,Rain,126
2012-12-2,63,59,54,58,55,48,93,86,78,30.09,29.97,29.90,10,6,1,29,13,32,0.62,7,Rain,73
2012-12-3,63,56,49,50,48,44,89,77,64,30.21,30.17,30.09,10,10,7,13,4,16,0.00,4,,308
2012-12-4,59,54,48,54,52,47,100,90,80,30.26,30.21,30.17,7,2,0,13,4,16,0.00,2,Fog,124
2012-12-5,62,59,55,55,54,52,93,83,72,30.22,30.14,30.09,10,4,0,16,5,21,0.22,7,Fog-Rain,297
2012-12-6,60,58,56,55,51,46,93,84,75,30.11,30.08,30.05,10,9,4,16,9,,0.00,7,,313
2012-12-7,63,56,49,49,47,44,86,75,64,30.14,30.09,30.06,10,8,2,10,4,,0.00,2,,309
2012-12-8,53,47,41,48,44,39,100,92,83,30.10,30.07,30.03,8,2,0,9,3,13,0.00,6,Fog,335
2012-12-9,59,52,44,49,45,42,100,79,57,30.22,30.14,30.09,10,3,0,8,2,22,0.00,2,Fog,7
2012-12-10,61,50,38,49,42,36,96,78,60,30.25,30.20,30.13,7,3,0,6,1,12,0.01,0,Fog,99
2012-12-11,60,50,39,50,44,39,100,84,67,30.12,30.02,29.86,10,2,0,10,4,32,0.01,1,Fog,133
2012-12-12,51,45,39,48,44,38,93,85,77,29.92,29.88,29.85,10,6,2,12,4,17,0.10,7,Rain,93
2012-12-13,53,46,38,43,40,35,96,80,63,29.92,29.89,29.84,10,7,0,12,4,20,0.00,3,Fog,308
2012-12-14,51,41,30,40,35,28,100,80,59,30.03,29.91,29.84,10,6,0,8,2,,0.01,3,Fog,116
2012-12-15,50,40,30,43,36,30,100,83,66,30.12,30.07,30.02,10,4,0,8,3,9,0.01,4,Fog-Rain-Snow,151
2012-12-16,55,46,36,46,40,34,92,74,55,30.14,30.10,30.08,10,8,4,12,4,21,T,5,,125
2012-12-17,61,56,50,52,48,42,89,80,71,30.11,30.02,29.97,10,7,2,20,10,23,0.28,8,Rain,91
2012-12-18,53,46,38,47,36,28,89,66,42,30.14,30.00,29.95,10,10,10,24,11,32,T,4,,315
2012-12-19,49,40,31,34,31,27,89,73,56,30.34,30.27,30.15,10,10,10,12,6,,0.00,0,,95
2012-12-20,57,43,28,34,30,27,85,62,38,30.27,30.16,30.07,10,10,8,14,7,17,0.00,0,,142
2012-12-21,57,46,34,44,34,28,75,58,40,30.05,30.00,29.95,10,10,5,21,11,25,0.06,4,Rain,126
2012-12-22,52,48,43,48,44,40,93,80,66,30.14,30.02,29.94,10,8,2,25,12,35,0.40,5,Rain,132
2012-12-23,53,48,42,49,46,43,93,88,83,30.15,30.05,29.93,10,6,1,30,13,39,0.21,7,Rain,130
2012-12-24,56,48,39,48,43,37,100,81,61,30.20,30.11,30.00,10,4,0,13,5,37,0.01,2,Fog,330
2012-12-25,51,46,40,46,43,39,100,93,86,30.18,30.08,29.87,10,3,0,21,8,25,0.31,8,Fog-Rain,142
2012-12-26,55,49,42,45,43,40,96,81,66,30.08,29.98,29.89,10,9,1,21,5,36,0.03,6,Rain,133
2012-12-27,51,44,37,42,40,35,92,79,66,30.19,30.12,30.08,10,8,2,16,5,20,0.00,2,,325
2012-12-28,50,41,32,43,38,31,96,86,76,30.22,30.15,30.06,10,6,2,9,3,,0.00,3,,121
2012-12-29,53,47,40,43,40,38,89,79,68,30.08,30.04,30.00,10,6,2,16,4,22,0.01,6,,347
2012-12-30,53,44,35,40,36,31,92,76,59,30.15,30.06,30.02,10,7,1,16,5,20,0.00,1,,299
2012-12-31,52,41,30,39,34,28,96,78,59,30.31,30.25,30.17,10,9,3,10,1,13,0.01,1,,354